Hourly Data Report for October 14, 2014

All times are specified in Local Standard Time (LST). Add 1 hour to adjust for Daylight Saving Time where and when it is observed.

POND INLET A
NUNAVUT

72°41'22.000" N
77°58'08.000" W
61.60 m
2403206
71095
YIO

Download Data

Hourly Data (October 2014)
Hourly Data Report for October 14, 2014
Temp Definition
°C
Dew Point Temp Definition
°C
Rel Hum Definition
%
Wind Dir Definition
10's deg

Wind Spd Definition
km/h
Visibility Definition
km
Stn Press Definition
kPa
Hmdx Definition


Wind Chill Definition


Weather Definition


TIME
00:00 Legend Double Dagger -0.3 -3.2 81 6 22 16.1 100.62   -6 LegendNANA
01:00 Legend Double Dagger -0.1 -3.2 80 7 22 16.1 100.60   -6 LegendNANA
02:00 Legend Double Dagger 0.6 -4.4 69 5 22 16.1 100.62     LegendNANA
03:00 Legend Double Dagger -0.2 -3.5 78 5 26 16.1 100.62   -6 LegendNANA
04:00 Legend Double Dagger -0.3 -3.6 78 6 24 16.1 100.62   -6 LegendNANA
05:00 Legend Double Dagger -0.5 -3.0 83 5 35 16.1 100.59   -8 LegendNANA
06:00 Legend Double Dagger 0.0 -3.9 75 9 18 16.1 100.62   -5 LegendNANA
07:00 Legend Double Dagger 0.0 -3.8 76 7 37 16.1 100.60   -7 LegendNANA
08:00 Legend Double Dagger -0.2 -4.7 72 6 37 16.1 100.57   -7 LegendNANA
09:00 Legend Double Dagger 0.1 -5.3 67 6 37 16.1 100.57     LegendNANA
10:00 Legend Double Dagger -0.1 -5.3 68 5 34 16.1 100.57   -7 LegendNANA
11:00 Legend Double Dagger 0.1 -5.2 68 5 26 16.1 100.59     LegendNANA
12:00 Legend Double Dagger 0.1 -5.7 65 8 24 16.1 100.59     LegendNANA
13:00 Legend Double Dagger 0.1 -5.8 64 6 34 16.1 100.60     LegendNANA
14:00 Legend Double Dagger -0.1 -5.1 69 5 28 16.1 100.63   -6 LegendNANA
15:00 Legend Double Dagger 0.1 -6.1 63 6 30 16.1 100.63     LegendNANA
16:00 Legend Double Dagger 0.0 -5.9 65 7 24 16.1 100.64   -6 LegendNANA
17:00 Legend Double Dagger -0.5 -6.6 64 8 18 16.1 100.64   -6 LegendNANA
18:00 Legend Double Dagger -0.3 -6.3 64 8 22 16.1 100.62   -6 LegendNANA
19:00 Legend Double Dagger -0.3 -6.3 64 8 17 16.1 100.64   -5 LegendNANA
20:00 Legend Double Dagger -1.0 -6.1 68 12 15 16.1 100.63   -6 LegendNANA
21:00 Legend Double Dagger -1.3 -5.9 71 12 11 16.1 100.61   -5 LegendNANA
22:00 Legend Double Dagger -1.0 -6.2 68 LegendMM 4 16.1 100.59   -2 Snow
23:00 Legend Double Dagger -1.4 -5.8 72 13 8 16.1 100.59   -4 LegendNANA

Notes on Data Quality.

Legend

  • E = Estimated
  • M = Missing
  • NA = Not Available
  • ‡ = Partner data that is not subject to review by the National Climate Archives
Date modified: